Back to catalog

STARLINK-36522

AliveCommunicationsVLEO
NORAD 67461·PAYLOAD·🇺🇸 United States

Launched Jan 14, 2026 from Cape Canaveral Space Force Station

Loading…

Next Passes (next 24 hours)

TLE

FreshSource: CelesTrak SupGP

Epoch: Sep 14, 2026, 14:37 UTC

1 67461C 26008S   26257.60951389 -.00023286  00000+0 -84351-3 0  2576
2 67461  43.0016 218.3132 0001144 251.3982 156.4164 15.27586844    18

Track STARLINK-36522 in real time with AllMySat

Download on the App Store